Location: Asheville, NC
(35.6000°N, 82.5500°W)
Time: 10:23:16
(UTC-04:00)

ISS - Pass Details

Date: 16 December 2017
Orbit: 403 x 408 km, 51.6° (Epoch: 18 October)

Event Time Altitude Azimuth Distance (km) Brightness Sun altitude
Rises 18:43:43 0° 300° (WNW) 2,384 0.7 -16.7°
Reaches altitude 10° 18:46:04 10° 286° (WNW) 1,510 -0.1 -17.2°
Maximum altitude 18:48:54 24° 230° (SW) 903 -1.3 -17.7°
Drops below altitude 10° 18:51:41 10° 173° (S) 1,489 -0.9 -18.3°
Enters shadow 18:54:45 -3° 157° (SSE) 2,644 0.2 -18.9°
